This demonstration page uses our WeatherBlox Daily Observations layout. Learn more.

Left ArrowRight Arrow

38.83388, -104.82136

Hourly Observations for March 8, 2021

Temp ( °F °C ) Dew Point ( °F °C ) Humidity (%) Winds ( mph kmh ) Pressure ( in mb ) Visibility ( mi km ) Precip ( " mm )
12:58 am 00:58 Clear 44 6.4 17 -8.5 34 34 NW 3 6 29.70 1006 10 16 0.00 0.00
1:58 am 01:58 Mostly Clear 44 6.9 15 -9.2 31 31 NNW 3 6 29.70 1006 10 16 0.00 0.00
2:58 am 02:58 Mostly Cloudy 50 10 12 -11 22 22 SSW 3 6 29.66 1004 10 16 0.00 0.00
3:58 am 03:58 Mostly Cloudy 46 8 15 -9.7 28 28 Calm 29.66 1005 10 16 0.00 0.00
4:58 am 04:58 Cloudy 47 8.4 12 -11 24 24 NNW 3 6 29.67 1005 10 16 0.00 0.00
5:58 am 05:58 Mostly Cloudy 50 9.9 9 -13 19 19 S 5 7 29.65 1004 10 16 0.00 0.00
6:58 am 06:58 Mostly Cloudy 50 9.9 7 -13.7 18 18 SW 5 7 29.64 1004 10 16 0.00 0.00
7:58 am 07:58 Cloudy 51 10.7 8 -13.1 18 18 Calm 29.66 1005 10 16 0.00 0.00
8:58 am 08:58 Cloudy 51 10.5 13 -10.8 21 21 Calm 29.65 1004 10 16 0.00 0.00
9:58 am 09:58 Mostly Cloudy 52 10.9 11 -11.7 19 19 Calm 29.65 1004 10 16 0.00 0.00
10:58 am 10:58 Mostly Cloudy 53 11.4 15 -9.6 22 22 N 6 9 29.67 1005 10 16 0.00 0.00
11:58 am 11:58 Partly Cloudy 57 13.9 15 -9.4 19 19 NNW 6 9 29.61 1003 10 16 0.00 0.00
12:35 pm 12:35 Partly Cloudy 59 15 16 -9 18 18 S 12 19 29.59 1002 10 16 0.00 0.00
12:38 pm 12:38 Partly Cloudy 59 15 14 -10 17 17 SSE 20 31 29.59 1002 10 16 0.00 0.00
12:58 pm 12:58 Mostly Cloudy 57 13.9 13 -10.4 18 18 SSE 12 19 29.62 1003 10 16 0.00 0.00
1:53 pm 13:53 Partly Cloudy 59 15 16 -9 18 18 SSE 23 37 29.54 1000 10 16 0.00 0.00
1:58 pm 13:58 Mostly Cloudy 59 14.8 15 -9.2 18 18 SSE 17 28 29.56 1001 10 16 0.00 0.00
2:40 pm 14:40 Mostly Sunny 59 15 18 -8 20 20 SSE 13 20 29.53 1000 10 16 0.00 0.00
2:58 pm 14:58 Partly Cloudy 58 14.7 19 -7.2 21 21 SSE 15 24 29.52 1000 10 16 0.00 0.00
3:58 pm 15:58 Mostly Cloudy 56 13.4 21 -6.2 25 25 S 14 22 29.55 1001 10 16 0.00 0.00
4:24 pm 16:24 Mostly Cloudy 55 13 19 -7 24 24 SW 15 24 29.55 1001 10 16 0.00 0.00
4:25 pm 16:25 Mostly Cloudy 55 13 19 -7 24 24 W 15 24 29.54 1000 10 16 0.00 0.00
4:58 pm 16:58 Mostly Sunny 54 12.2 17 -8.3 23 23 W 7 11 29.57 1002 10 16 0.00 0.00
5:58 pm 17:58 Sunny 52 11.3 18 -7.7 26 26 W 6 9 29.57 1002 10 16 0.00 0.00
6:58 pm 18:58 Clear 52 11.3 16 -8.8 24 24 WSW 6 9 29.57 1001 10 16 0.00 0.00
7:58 pm 19:58 Clear 51 10.6 18 -7.9 27 27 SSW 12 19 29.57 1001 10 16 0.00 0.00
8:58 pm 20:58 Clear 50 10.1 19 -7.2 29 29 SSW 9 15 29.59 1002 10 16 0.00 0.00
9:58 pm 21:58 Clear 49 9.6 18 -7.7 29 29 SW 3 6 29.57 1001 10 16 0.00 0.00
10:58 pm 22:58 Clear 47 8.6 18 -7.6 31 31 W 3 6 29.57 1001 10 16 0.00 0.00
11:58 pm 23:58 Clear 48 8.7 18 -7.8 31 31 SSW 7 11 29.55 1001 10 16 0.00 0.00

Powered by AerisWeather